Location: Haliburton Scout Reserve
(45.0900°N, 78.3200°W)
Time: 18:06:43
(UTC-05:00)

Courier 1B - Pass Details

Date: 08 December 2023
Orbit: 962 x 1209 km, 28.3° (Epoch: 23 February)

Event Time Altitude Azimuth Distance (km) Brightness Sun altitude
Rises 10:33:07 0° 243° (WSW) 3,782 10.6 19.0°
Reaches altitude 10° 10:36:50 10° 225° (SW) 2,784 10.3 19.3°
Maximum altitude 10:41:02 18° 186° (S) 2,237 10.8 19.5°
Drops below altitude 10° 10:45:09 10° 146° (SE) 2,708 11.7 19.8°
Sets 10:48:41 0° 127° (SE) 3,637 11.4 20.0°
